Year,Month,Day,Hour,Minute,Value (Times are PST for temperature in C)
2009,05,26,00,00,12.10
2009,05,26,00,02,12.10
2009,05,26,00,03,12.10
2009,05,26,00,04,12.10
2009,05,26,00,06,12.00
2009,05,26,00,07,12.00
2009,05,26,00,08,12.00
2009,05,26,00,09,12.00
2009,05,26,00,10,11.90
2009,05,26,00,11,11.90
2009,05,26,00,12,11.90
2009,05,26,00,13,11.90
2009,05,26,00,14,11.90
2009,05,26,00,15,11.90
2009,05,26,00,16,11.90
2009,05,26,00,17,11.90
2009,05,26,00,18,11.90
2009,05,26,00,19,11.90
2009,05,26,00,20,11.90
2009,05,26,00,21,11.90
2009,05,26,00,22,11.90
2009,05,26,00,23,11.90
2009,05,26,00,24,11.90
2009,05,26,00,25,11.80
2009,05,26,00,26,11.90
2009,05,26,00,27,11.90
2009,05,26,00,28,11.90
2009,05,26,00,29,11.80
2009,05,26,00,30,11.90
2009,05,26,00,31,11.90
2009,05,26,00,32,11.90
2009,05,26,00,33,11.90
2009,05,26,00,34,11.80
2009,05,26,00,35,11.90
2009,05,26,00,36,11.90
2009,05,26,00,37,11.90
2009,05,26,00,38,11.90
2009,05,26,00,39,11.90
2009,05,26,00,40,11.90
2009,05,26,00,41,11.90
2009,05,26,00,42,11.90
2009,05,26,00,43,11.90
2009,05,26,00,44,11.90
2009,05,26,00,45,11.90
2009,05,26,00,46,11.90
2009,05,26,00,47,11.90
2009,05,26,00,48,11.90
2009,05,26,00,49,11.90
2009,05,26,00,50,11.90
2009,05,26,00,51,11.90
2009,05,26,00,52,11.90
2009,05,26,00,53,11.90
2009,05,26,00,54,11.90
2009,05,26,00,55,11.90
2009,05,26,00,56,11.90
2009,05,26,00,57,11.90
2009,05,26,00,58,11.90
2009,05,26,00,59,11.80
2009,05,26,01,00,11.90
2009,05,26,01,02,11.80
2009,05,26,01,03,11.80
2009,05,26,01,04,11.80
2009,05,26,01,05,11.80
2009,05,26,01,06,11.80
2009,05,26,01,07,11.80
2009,05,26,01,08,11.80
2009,05,26,01,09,11.80
2009,05,26,01,10,11.80
2009,05,26,01,11,11.80
2009,05,26,01,12,11.80
2009,05,26,01,13,11.80
2009,05,26,01,14,11.80
2009,05,26,01,15,11.90
2009,05,26,01,16,11.90
2009,05,26,01,17,11.90
2009,05,26,01,18,11.90
2009,05,26,01,19,11.90
2009,05,26,01,21,11.90
2009,05,26,01,22,11.90
2009,05,26,01,23,11.90
2009,05,26,01,24,11.90
2009,05,26,01,25,11.90
2009,05,26,01,26,11.90
2009,05,26,01,27,11.90
2009,05,26,01,28,11.90
2009,05,26,01,29,11.90
2009,05,26,01,30,11.90
2009,05,26,01,31,11.90
2009,05,26,01,32,11.90
2009,05,26,01,33,11.90
2009,05,26,01,34,11.90
2009,05,26,01,35,11.90
2009,05,26,01,36,11.90
2009,05,26,01,37,11.90
2009,05,26,01,38,11.90
2009,05,26,01,39,11.80
2009,05,26,01,40,11.80
2009,05,26,01,41,11.80
2009,05,26,01,42,11.80
2009,05,26,01,44,11.80
2009,05,26,01,45,11.80
2009,05,26,01,47,11.70
2009,05,26,01,48,11.70
2009,05,26,01,50,11.70
2009,05,26,01,51,11.70
2009,05,26,01,52,11.70
2009,05,26,01,53,11.70
2009,05,26,01,54,11.70
2009,05,26,01,55,11.70
2009,05,26,01,56,11.70
2009,05,26,01,57,11.70
2009,05,26,01,58,11.70
2009,05,26,01,59,11.60
2009,05,26,02,00,11.60
2009,05,26,02,02,11.60
2009,05,26,02,03,11.60
2009,05,26,02,04,11.60
2009,05,26,02,06,11.60
2009,05,26,02,07,11.60
2009,05,26,02,08,11.60
2009,05,26,02,09,11.60
2009,05,26,02,10,11.60
2009,05,26,02,11,11.60
2009,05,26,02,12,11.60
2009,05,26,02,13,11.60
2009,05,26,02,14,11.60
2009,05,26,02,15,11.60
2009,05,26,02,16,11.60
2009,05,26,02,17,11.60
2009,05,26,02,18,11.70
2009,05,26,02,19,11.70
2009,05,26,02,20,11.70
2009,05,26,02,21,11.70
2009,05,26,02,22,11.70
2009,05,26,02,23,11.70
2009,05,26,02,24,11.70
2009,05,26,02,26,11.70
2009,05,26,02,27,11.70
2009,05,26,02,28,11.80
2009,05,26,02,29,11.80
2009,05,26,02,30,11.80
2009,05,26,02,31,11.80
2009,05,26,02,32,11.80
2009,05,26,02,33,11.80
2009,05,26,02,34,11.80
2009,05,26,02,35,11.80
2009,05,26,02,36,11.80
2009,05,26,02,37,11.80
2009,05,26,02,38,11.80
2009,05,26,02,39,11.90
2009,05,26,02,40,11.90
2009,05,26,02,41,11.90
2009,05,26,02,42,11.90
2009,05,26,02,44,11.90
2009,05,26,02,45,11.90
2009,05,26,02,46,11.90
2009,05,26,02,47,11.90
2009,05,26,02,48,11.90
2009,05,26,02,49,11.90
2009,05,26,02,50,11.90
2009,05,26,02,51,11.90
2009,05,26,02,52,11.90
2009,05,26,02,53,11.90
2009,05,26,02,54,11.90
2009,05,26,02,55,11.90
2009,05,26,02,56,11.90
2009,05,26,02,57,12.00
2009,05,26,02,58,12.00
2009,05,26,02,59,11.90
2009,05,26,03,00,11.90
2009,05,26,03,02,11.90
2009,05,26,03,03,11.90
2009,05,26,03,04,11.90
2009,05,26,03,05,11.90
2009,05,26,03,06,11.90
2009,05,26,03,07,11.90
2009,05,26,03,08,11.90
2009,05,26,03,09,11.90
2009,05,26,03,10,11.90
2009,05,26,03,11,11.90
2009,05,26,03,12,11.90
2009,05,26,03,13,11.90
2009,05,26,03,14,11.90
2009,05,26,03,15,11.90
2009,05,26,03,16,11.90
2009,05,26,03,17,11.90
2009,05,26,03,18,11.90
2009,05,26,03,19,11.80
2009,05,26,03,20,11.80
2009,05,26,03,21,11.80
2009,05,26,03,22,11.80
2009,05,26,03,23,11.80
2009,05,26,03,24,11.80
2009,05,26,03,25,11.80
2009,05,26,03,26,11.80
2009,05,26,03,27,11.80
2009,05,26,03,28,11.80
2009,05,26,03,29,11.80
2009,05,26,03,30,11.80
2009,05,26,03,31,11.80
2009,05,26,03,32,11.80
2009,05,26,03,33,11.70
2009,05,26,03,34,11.70
2009,05,26,03,35,11.70
2009,05,26,03,36,11.70
2009,05,26,03,37,11.70
2009,05,26,03,38,11.70
2009,05,26,03,39,11.70
2009,05,26,03,40,11.70
2009,05,26,03,41,11.70
2009,05,26,03,42,11.70
2009,05,26,03,43,11.70
2009,05,26,03,44,11.70
2009,05,26,03,45,11.70
2009,05,26,03,46,11.60
2009,05,26,03,47,11.60
2009,05,26,03,48,11.60
2009,05,26,03,49,11.60
2009,05,26,03,50,11.60
2009,05,26,03,51,11.60
2009,05,26,03,52,11.60
2009,05,26,03,53,11.60
2009,05,26,03,54,11.60
2009,05,26,03,55,11.60
2009,05,26,03,56,11.60
2009,05,26,03,57,11.60
2009,05,26,03,58,11.60
2009,05,26,03,59,11.60
2009,05,26,04,00,11.60
2009,05,26,04,02,11.60
2009,05,26,04,03,11.60
2009,05,26,04,04,11.60
2009,05,26,04,05,11.50
2009,05,26,04,06,11.50
2009,05,26,04,07,11.50
2009,05,26,04,08,11.50
2009,05,26,04,09,11.50
2009,05,26,04,10,11.50
2009,05,26,04,11,11.50
2009,05,26,04,12,11.50
2009,05,26,04,13,11.40
2009,05,26,04,14,11.40
2009,05,26,04,15,11.40
2009,05,26,04,16,11.40
2009,05,26,04,17,11.40
2009,05,26,04,18,11.40
2009,05,26,04,19,11.40
2009,05,26,04,20,11.40
2009,05,26,04,21,11.40
2009,05,26,04,22,11.40
2009,05,26,04,23,11.40
2009,05,26,04,24,11.40
2009,05,26,04,25,11.40
2009,05,26,04,27,11.40
2009,05,26,04,29,11.40
2009,05,26,04,30,11.40
2009,05,26,04,31,11.40
2009,05,26,04,32,11.40
2009,05,26,04,34,11.40
2009,05,26,04,35,11.40
2009,05,26,04,36,11.40
2009,05,26,04,37,11.40
2009,05,26,04,38,11.40
2009,05,26,04,39,11.40
2009,05,26,04,40,11.40
2009,05,26,04,41,11.40
2009,05,26,04,42,11.40
2009,05,26,04,43,11.40
2009,05,26,04,44,11.40
2009,05,26,04,45,11.40
2009,05,26,04,46,11.40
2009,05,26,04,47,11.40
2009,05,26,04,48,11.40
2009,05,26,04,49,11.30
2009,05,26,04,50,11.40
2009,05,26,04,51,11.40
2009,05,26,04,52,11.40
2009,05,26,04,53,11.40
2009,05,26,04,54,11.40
2009,05,26,04,55,11.30
2009,05,26,04,56,11.30
2009,05,26,04,57,11.30
2009,05,26,04,58,11.30
2009,05,26,04,59,11.30
2009,05,26,05,00,11.30
2009,05,26,05,02,11.30
2009,05,26,05,03,11.30
2009,05,26,05,04,11.30
2009,05,26,05,05,11.30
2009,05,26,05,07,11.30
2009,05,26,05,08,11.30
2009,05,26,05,09,11.30
2009,05,26,05,10,11.30
2009,05,26,05,11,11.30
2009,05,26,05,12,11.30
2009,05,26,05,13,11.30
2009,05,26,05,14,11.30
2009,05,26,05,15,11.20
2009,05,26,05,16,11.20
2009,05,26,05,17,11.20
2009,05,26,05,18,11.20
2009,05,26,05,20,11.30
2009,05,26,05,21,11.20
2009,05,26,05,22,11.20
2009,05,26,05,23,11.20
2009,05,26,05,24,11.20
2009,05,26,05,25,11.20
2009,05,26,05,26,11.20
2009,05,26,05,27,11.20
2009,05,26,05,28,11.20
2009,05,26,05,29,11.20
2009,05,26,05,30,11.20
2009,05,26,05,31,11.20
2009,05,26,05,32,11.20
2009,05,26,05,34,11.20
2009,05,26,05,35,11.20
2009,05,26,05,36,11.20
2009,05,26,05,37,11.20
2009,05,26,05,38,11.20
2009,05,26,05,39,11.30
2009,05,26,05,40,11.30
2009,05,26,05,41,11.30
2009,05,26,05,42,11.30
2009,05,26,05,43,11.30
2009,05,26,05,44,11.30
2009,05,26,05,45,11.30
2009,05,26,05,46,11.30
2009,05,26,05,47,11.30
2009,05,26,05,48,11.30
2009,05,26,05,49,11.30
2009,05,26,05,50,11.30
2009,05,26,05,51,11.30
2009,05,26,05,52,11.30
2009,05,26,05,53,11.30
2009,05,26,05,54,11.30
2009,05,26,05,55,11.30
2009,05,26,05,56,11.30
2009,05,26,05,57,11.30
2009,05,26,05,59,11.30
2009,05,26,06,00,11.30
2009,05,26,06,02,11.30
2009,05,26,06,03,11.30
2009,05,26,06,04,11.30
2009,05,26,06,05,11.30
2009,05,26,06,06,11.30
2009,05,26,06,07,11.30
2009,05,26,06,08,11.20
2009,05,26,06,09,11.30
2009,05,26,06,10,11.30
2009,05,26,06,11,11.20
2009,05,26,06,12,11.30
2009,05,26,06,13,11.20
2009,05,26,06,14,11.30
2009,05,26,06,15,11.30
2009,05,26,06,16,11.30
2009,05,26,06,17,11.30
2009,05,26,06,18,11.30
2009,05,26,06,19,11.30
2009,05,26,06,20,11.30
2009,05,26,06,21,11.30
2009,05,26,06,22,11.30
2009,05,26,06,23,11.30
2009,05,26,06,24,11.30
2009,05,26,06,25,11.30
2009,05,26,06,26,11.30
2009,05,26,06,27,11.30
2009,05,26,06,28,11.30
2009,05,26,06,29,11.30
2009,05,26,06,30,11.30
2009,05,26,06,31,11.30
2009,05,26,06,32,11.30
2009,05,26,06,33,11.30
2009,05,26,06,34,11.40
2009,05,26,06,35,11.40
2009,05,26,06,36,11.40
2009,05,26,06,37,11.40
2009,05,26,06,38,11.40
2009,05,26,06,39,11.40
2009,05,26,06,40,11.40
2009,05,26,06,41,11.40
2009,05,26,06,42,11.40
2009,05,26,06,43,11.40
2009,05,26,06,44,11.40
2009,05,26,06,45,11.40
2009,05,26,06,46,11.40
2009,05,26,06,47,11.40
2009,05,26,06,48,11.40
2009,05,26,06,49,11.40
2009,05,26,06,50,11.40
2009,05,26,06,51,11.40
2009,05,26,06,52,11.40
2009,05,26,06,53,11.40
2009,05,26,06,54,11.40
2009,05,26,06,55,11.40
2009,05,26,06,56,11.40
2009,05,26,06,57,11.40
2009,05,26,06,58,11.40
2009,05,26,06,59,11.40
2009,05,26,07,00,11.40
2009,05,26,07,02,11.40
2009,05,26,07,03,11.40
2009,05,26,07,04,11.40
2009,05,26,07,05,11.40
2009,05,26,07,06,11.40
2009,05,26,07,07,11.40
2009,05,26,07,08,11.40
2009,05,26,07,09,11.40
2009,05,26,07,10,11.40
2009,05,26,07,11,11.40
2009,05,26,07,12,11.40
2009,05,26,07,13,11.40
2009,05,26,07,14,11.40
2009,05,26,07,15,11.40
2009,05,26,07,16,11.40
2009,05,26,07,17,11.40
2009,05,26,07,18,11.40
2009,05,26,07,19,11.40
2009,05,26,07,20,11.40
2009,05,26,07,21,11.50
2009,05,26,07,23,11.50
2009,05,26,07,24,11.50
2009,05,26,07,25,11.50
2009,05,26,07,26,11.50
2009,05,26,07,27,11.50
2009,05,26,07,28,11.50
2009,05,26,07,29,11.50
2009,05,26,07,30,11.50
2009,05,26,07,31,11.50
2009,05,26,07,32,11.60
2009,05,26,07,33,11.60
2009,05,26,07,34,11.60
2009,05,26,07,35,11.60
2009,05,26,07,36,11.60
2009,05,26,07,37,11.60
2009,05,26,07,38,11.60
2009,05,26,07,39,11.60
2009,05,26,07,40,11.60
2009,05,26,07,41,11.60
2009,05,26,07,42,11.60
2009,05,26,07,43,11.60
2009,05,26,07,44,11.70
2009,05,26,07,45,11.70
2009,05,26,07,46,11.70
2009,05,26,07,47,11.70
2009,05,26,07,48,11.70
2009,05,26,07,49,11.80
2009,05,26,07,50,11.80
2009,05,26,07,51,11.80
2009,05,26,07,52,11.80
2009,05,26,07,53,11.90
2009,05,26,07,54,11.90
2009,05,26,07,55,11.90
2009,05,26,07,56,11.90
2009,05,26,07,57,11.90
2009,05,26,07,58,12.00
2009,05,26,07,59,12.00
2009,05,26,08,00,12.10
2009,05,26,08,02,12.10
2009,05,26,08,03,12.10
2009,05,26,08,04,12.10
2009,05,26,08,05,12.20
2009,05,26,08,06,12.20
2009,05,26,08,07,12.20
2009,05,26,08,08,12.20
2009,05,26,08,09,12.20
2009,05,26,08,10,12.20
2009,05,26,08,11,12.20
2009,05,26,08,12,12.20
2009,05,26,08,13,12.20
2009,05,26,08,14,12.20
2009,05,26,08,15,12.20
2009,05,26,08,16,12.20
2009,05,26,08,17,12.30
2009,05,26,08,18,12.20
2009,05,26,08,19,12.30
2009,05,26,08,20,12.30
2009,05,26,08,22,12.30
2009,05,26,08,23,12.30
2009,05,26,08,24,12.30
2009,05,26,08,25,12.30
2009,05,26,08,26,12.30
2009,05,26,08,27,12.30
2009,05,26,08,28,12.40
2009,05,26,08,29,12.40
2009,05,26,08,30,12.40
2009,05,26,08,32,12.40
2009,05,26,08,33,12.40
2009,05,26,08,34,12.40
2009,05,26,08,35,12.40
2009,05,26,08,36,12.40
2009,05,26,08,37,12.40
2009,05,26,08,38,12.40
2009,05,26,08,39,12.40
2009,05,26,08,40,12.50
2009,05,26,08,41,12.50
2009,05,26,08,42,12.50
2009,05,26,08,43,12.50
2009,05,26,08,44,12.50
2009,05,26,08,45,12.60
2009,05,26,08,46,12.60
2009,05,26,08,47,12.60
2009,05,26,08,48,12.60
2009,05,26,08,49,12.60
2009,05,26,08,50,12.70
2009,05,26,08,51,12.70
2009,05,26,08,52,12.70
2009,05,26,08,53,12.80
2009,05,26,08,54,12.80
2009,05,26,08,55,12.80
2009,05,26,08,56,12.80
2009,05,26,08,57,12.80
2009,05,26,08,59,12.90
2009,05,26,09,00,12.90
2009,05,26,09,02,12.90
2009,05,26,09,03,12.90
2009,05,26,09,04,12.90
2009,05,26,09,05,12.90
2009,05,26,09,06,12.90
2009,05,26,09,07,12.90
2009,05,26,09,08,12.90
2009,05,26,09,09,12.90
2009,05,26,09,10,13.00
2009,05,26,09,11,13.00
2009,05,26,09,12,13.00
2009,05,26,09,13,13.00
2009,05,26,09,14,13.00
2009,05,26,09,15,13.10
2009,05,26,09,16,13.00
2009,05,26,09,17,13.10
2009,05,26,09,18,13.10
2009,05,26,09,19,13.10
2009,05,26,09,20,13.10
2009,05,26,09,21,13.10
2009,05,26,09,22,13.10
2009,05,26,09,23,13.10
2009,05,26,09,24,13.20
2009,05,26,09,25,13.20
2009,05,26,09,26,13.20
2009,05,26,09,27,13.20
2009,05,26,09,28,13.20
2009,05,26,09,29,13.20
2009,05,26,09,30,13.20
2009,05,26,09,31,13.20
2009,05,26,09,32,13.30
2009,05,26,09,33,13.30
2009,05,26,09,34,13.30
2009,05,26,09,35,13.30
2009,05,26,09,36,13.30
2009,05,26,09,37,13.30
2009,05,26,09,38,13.30
2009,05,26,09,39,13.30
2009,05,26,09,40,13.30
2009,05,26,09,41,13.40
2009,05,26,09,42,13.40
2009,05,26,09,43,13.40
2009,05,26,09,44,13.40
2009,05,26,09,45,13.40
2009,05,26,09,46,13.50
2009,05,26,09,47,13.60
2009,05,26,09,48,13.60
2009,05,26,09,50,13.70
2009,05,26,09,51,13.80
2009,05,26,09,52,13.80
2009,05,26,09,53,13.90
2009,05,26,09,54,13.90
2009,05,26,09,55,14.00
2009,05,26,09,56,14.00
2009,05,26,09,57,14.10
2009,05,26,09,58,14.10
2009,05,26,09,59,14.10
2009,05,26,10,00,14.10
2009,05,26,10,02,14.20
2009,05,26,10,04,14.30
2009,05,26,10,05,14.40
2009,05,26,10,06,14.40
2009,05,26,10,07,14.50
2009,05,26,10,08,14.60
2009,05,26,10,09,14.60
2009,05,26,10,10,14.70
2009,05,26,10,11,14.80
2009,05,26,10,12,14.90
2009,05,26,10,13,15.00
2009,05,26,10,14,15.00
2009,05,26,10,15,15.00
2009,05,26,10,16,15.00
2009,05,26,10,17,15.00
2009,05,26,10,18,15.00
2009,05,26,10,19,15.00
2009,05,26,10,20,15.10
2009,05,26,10,21,15.10
2009,05,26,10,22,15.20
2009,05,26,10,23,15.20
2009,05,26,10,24,15.20
2009,05,26,10,25,15.20
2009,05,26,10,26,15.20
2009,05,26,10,27,15.30
2009,05,26,10,28,15.30
2009,05,26,10,29,15.30
2009,05,26,10,30,15.20
2009,05,26,10,31,15.20
2009,05,26,10,32,15.20
2009,05,26,10,33,15.30
2009,05,26,10,34,15.20
2009,05,26,10,36,15.20
2009,05,26,10,37,15.30
2009,05,26,10,38,15.30
2009,05,26,10,39,15.30
2009,05,26,10,40,15.30
2009,05,26,10,41,15.30
2009,05,26,10,42,15.30
2009,05,26,10,43,15.30
2009,05,26,10,44,15.30
2009,05,26,10,45,15.30
2009,05,26,10,46,15.30
2009,05,26,10,47,15.30
2009,05,26,10,48,15.30
2009,05,26,10,49,15.30
2009,05,26,10,50,15.30
2009,05,26,10,51,15.30
2009,05,26,10,52,15.30
2009,05,26,10,53,15.30
2009,05,26,10,54,15.20
2009,05,26,10,55,15.20
2009,05,26,10,56,15.20
2009,05,26,10,57,15.20
2009,05,26,10,58,15.20
2009,05,26,10,59,15.30
2009,05,26,11,00,15.30
2009,05,26,11,02,15.40
2009,05,26,11,03,15.50
2009,05,26,11,04,15.60
2009,05,26,11,05,15.60
2009,05,26,11,06,15.60
2009,05,26,11,07,15.60
2009,05,26,11,08,15.70
2009,05,26,11,09,15.70
2009,05,26,11,10,15.70
2009,05,26,11,11,15.80
2009,05,26,11,12,15.80
2009,05,26,11,13,15.90
2009,05,26,11,14,16.00
2009,05,26,11,15,16.10
2009,05,26,11,16,16.20
2009,05,26,11,17,16.30
2009,05,26,11,18,16.40
2009,05,26,11,19,16.50
2009,05,26,11,20,16.60
2009,05,26,11,21,16.60
2009,05,26,11,22,16.70
2009,05,26,11,23,16.70
2009,05,26,11,24,16.70
2009,05,26,11,25,16.70
2009,05,26,11,26,16.80
2009,05,26,11,27,16.80
2009,05,26,11,28,16.80
2009,05,26,11,29,16.90
2009,05,26,11,30,17.00
2009,05,26,11,31,17.10
2009,05,26,11,32,17.10
2009,05,26,11,33,17.20
2009,05,26,11,34,17.20
2009,05,26,11,35,17.30
2009,05,26,11,36,17.30
2009,05,26,11,37,17.30
2009,05,26,11,38,17.40
2009,05,26,11,39,17.40
2009,05,26,11,40,17.40
2009,05,26,11,41,17.40
2009,05,26,11,42,17.50
2009,05,26,11,43,17.50
2009,05,26,11,44,17.60
2009,05,26,11,45,17.70
2009,05,26,11,46,17.70
2009,05,26,11,47,17.70
2009,05,26,11,48,17.80
2009,05,26,11,49,17.80
2009,05,26,11,50,17.80
2009,05,26,11,51,17.90
2009,05,26,11,52,17.90
2009,05,26,11,53,18.00
2009,05,26,11,54,18.00
2009,05,26,11,55,18.10
2009,05,26,11,56,18.10
2009,05,26,11,57,18.10
2009,05,26,11,58,18.10
2009,05,26,11,59,18.10
2009,05,26,12,00,18.10
2009,05,26,12,02,18.10
2009,05,26,12,03,17.90
2009,05,26,12,04,17.90
2009,05,26,12,05,17.80
2009,05,26,12,06,17.80
2009,05,26,12,07,17.80
2009,05,26,12,08,17.80
2009,05,26,12,09,17.80
2009,05,26,12,10,17.80
2009,05,26,12,11,17.80
2009,05,26,12,12,17.90
2009,05,26,12,13,17.90
2009,05,26,12,14,17.90
2009,05,26,12,15,17.90
2009,05,26,12,16,17.90
2009,05,26,12,17,18.00
2009,05,26,12,18,18.00
2009,05,26,12,19,18.00
2009,05,26,12,20,17.90
2009,05,26,12,21,17.90
2009,05,26,12,22,17.80
2009,05,26,12,23,17.80
2009,05,26,12,24,17.70
2009,05,26,12,25,17.60
2009,05,26,12,26,17.60
2009,05,26,12,27,17.50
2009,05,26,12,28,17.40
2009,05,26,12,29,17.40
2009,05,26,12,30,17.40
2009,05,26,12,31,17.50
2009,05,26,12,32,17.50
2009,05,26,12,33,17.50
2009,05,26,12,34,17.60
2009,05,26,12,35,17.60
2009,05,26,12,36,17.60
2009,05,26,12,37,17.70
2009,05,26,12,38,17.70
2009,05,26,12,39,17.80
2009,05,26,12,40,17.80
2009,05,26,12,41,17.80
2009,05,26,12,42,17.70
2009,05,26,12,43,17.70
2009,05,26,12,44,17.60
2009,05,26,12,45,17.60
2009,05,26,12,46,17.50
2009,05,26,12,47,17.50
2009,05,26,12,48,17.40
2009,05,26,12,49,17.40
2009,05,26,12,50,17.40
2009,05,26,12,51,17.40
2009,05,26,12,52,17.50
2009,05,26,12,53,17.50
2009,05,26,12,54,17.50
2009,05,26,12,55,17.50
2009,05,26,12,56,17.60
2009,05,26,12,57,17.60
2009,05,26,12,58,17.60
2009,05,26,12,59,17.60
2009,05,26,13,00,17.60
2009,05,26,13,02,17.60
2009,05,26,13,03,17.60
2009,05,26,13,04,17.50
2009,05,26,13,05,17.50
2009,05,26,13,06,17.50
2009,05,26,13,07,17.40
2009,05,26,13,08,17.40
2009,05,26,13,09,17.50
2009,05,26,13,10,17.50
2009,05,26,13,11,17.60
2009,05,26,13,12,17.60
2009,05,26,13,13,17.60
2009,05,26,13,14,17.60
2009,05,26,13,15,17.60
2009,05,26,13,16,17.70
2009,05,26,13,17,17.60
2009,05,26,13,18,17.60
2009,05,26,13,19,17.60
2009,05,26,13,20,17.60
2009,05,26,13,21,17.70
2009,05,26,13,22,17.70
2009,05,26,13,23,17.70
2009,05,26,13,24,17.60
2009,05,26,13,25,17.60
2009,05,26,13,26,17.70
2009,05,26,13,27,17.70
2009,05,26,13,28,17.70
2009,05,26,13,29,17.80
2009,05,26,13,30,17.80
2009,05,26,13,31,17.90
2009,05,26,13,32,17.90
2009,05,26,13,33,18.00
2009,05,26,13,34,18.00
2009,05,26,13,35,18.10
2009,05,26,13,36,18.10
2009,05,26,13,37,18.20
2009,05,26,13,38,18.20
2009,05,26,13,39,18.10
2009,05,26,13,40,18.10
2009,05,26,13,41,18.10
2009,05,26,13,42,18.10
2009,05,26,13,43,18.10
2009,05,26,13,44,18.10
2009,05,26,13,45,18.10
2009,05,26,13,46,18.10
2009,05,26,13,47,18.10
2009,05,26,13,48,18.10
2009,05,26,13,49,18.10
2009,05,26,13,50,18.10
2009,05,26,13,51,18.10
2009,05,26,13,52,18.10
2009,05,26,13,53,18.10
2009,05,26,13,54,18.10
2009,05,26,13,55,18.10
2009,05,26,13,56,18.10
2009,05,26,13,57,18.20
2009,05,26,13,58,18.20
2009,05,26,13,59,18.20
2009,05,26,14,00,18.20
2009,05,26,14,02,18.20
2009,05,26,14,03,18.30
2009,05,26,14,04,18.30
2009,05,26,14,05,18.40
2009,05,26,14,06,18.40
2009,05,26,14,07,18.50
2009,05,26,14,08,18.50
2009,05,26,14,09,18.50
2009,05,26,14,10,18.50
2009,05,26,14,11,18.50
2009,05,26,14,12,18.40
2009,05,26,14,13,18.40
2009,05,26,14,14,18.40
2009,05,26,14,15,18.40
2009,05,26,14,16,18.40
2009,05,26,14,17,18.40
2009,05,26,14,18,18.40
2009,05,26,14,19,18.40
2009,05,26,14,21,18.60
2009,05,26,14,22,18.60
2009,05,26,14,23,18.60
2009,05,26,14,24,18.70
2009,05,26,14,25,18.70
2009,05,26,14,26,18.80
2009,05,26,14,27,18.80
2009,05,26,14,28,18.80
2009,05,26,14,29,18.80
2009,05,26,14,30,18.80
2009,05,26,14,31,18.90
2009,05,26,14,32,18.90
2009,05,26,14,33,18.90
2009,05,26,14,34,18.90
2009,05,26,14,35,18.90
2009,05,26,14,36,18.90
2009,05,26,14,37,19.00
2009,05,26,14,38,19.10
2009,05,26,14,39,19.10
2009,05,26,14,40,19.20
2009,05,26,14,41,19.20
2009,05,26,14,42,19.20
2009,05,26,14,43,19.20
2009,05,26,14,44,19.20
2009,05,26,14,45,19.20
2009,05,26,14,46,19.30
2009,05,26,14,47,19.30
2009,05,26,14,48,19.30
2009,05,26,14,49,19.30
2009,05,26,14,50,19.30
2009,05,26,14,51,19.30
2009,05,26,14,52,19.30
2009,05,26,14,53,19.30
2009,05,26,14,54,19.30
2009,05,26,14,55,19.30
2009,05,26,14,56,19.20
2009,05,26,14,57,19.20
2009,05,26,14,58,19.20
2009,05,26,14,59,19.20
2009,05,26,15,00,19.20
2009,05,26,15,02,19.20
2009,05,26,15,03,19.10
2009,05,26,15,04,19.10
2009,05,26,15,05,19.00
2009,05,26,15,06,19.00
2009,05,26,15,07,18.90
2009,05,26,15,08,18.90
2009,05,26,15,09,18.90
2009,05,26,15,10,18.80
2009,05,26,15,11,18.80
2009,05,26,15,12,18.80
2009,05,26,15,13,18.80
2009,05,26,15,14,18.80
2009,05,26,15,15,18.90
2009,05,26,15,16,18.90
2009,05,26,15,17,18.90
2009,05,26,15,18,18.90
2009,05,26,15,19,18.90
2009,05,26,15,20,18.90
2009,05,26,15,22,19.00
2009,05,26,15,23,19.00
2009,05,26,15,24,19.10
2009,05,26,15,25,19.10
2009,05,26,15,26,19.10
2009,05,26,15,27,19.10
2009,05,26,15,28,19.10
2009,05,26,15,29,19.10
2009,05,26,15,30,19.10
2009,05,26,15,31,19.00
2009,05,26,15,32,18.90
2009,05,26,15,33,18.90
2009,05,26,15,34,18.90
2009,05,26,15,35,18.90
2009,05,26,15,36,18.90
2009,05,26,15,37,18.80
2009,05,26,15,38,18.80
2009,05,26,15,39,18.80
2009,05,26,15,40,18.70
2009,05,26,15,41,18.70
2009,05,26,15,42,18.60
2009,05,26,15,43,18.60
2009,05,26,15,44,18.50
2009,05,26,15,45,18.40
2009,05,26,15,46,18.40
2009,05,26,15,47,18.40
2009,05,26,15,48,18.50
2009,05,26,15,49,18.50
2009,05,26,15,50,18.60
2009,05,26,15,51,18.60
2009,05,26,15,52,18.60
2009,05,26,15,53,18.60
2009,05,26,15,54,18.60
2009,05,26,15,55,18.60
2009,05,26,15,56,18.60
2009,05,26,15,57,18.70
2009,05,26,16,02,18.90
2009,05,26,16,03,18.90
2009,05,26,16,04,19.00
2009,05,26,16,05,19.10
2009,05,26,16,06,19.10
2009,05,26,16,07,19.10
2009,05,26,16,08,19.10
2009,05,26,16,09,19.10
2009,05,26,16,10,19.10
2009,05,26,16,11,19.10
2009,05,26,16,12,19.10
2009,05,26,16,13,19.10
2009,05,26,16,14,19.10
2009,05,26,16,15,19.00
2009,05,26,16,16,19.10
2009,05,26,16,17,19.00
2009,05,26,16,18,19.00
2009,05,26,16,19,19.00
2009,05,26,16,20,18.90
2009,05,26,16,21,18.90
2009,05,26,16,22,18.80
2009,05,26,16,23,18.80
2009,05,26,16,24,18.70
2009,05,26,16,25,18.70
2009,05,26,16,26,18.70
2009,05,26,16,27,18.80
2009,05,26,16,28,18.80
2009,05,26,16,29,18.70
2009,05,26,16,30,18.70
2009,05,26,16,31,18.70
2009,05,26,16,32,18.70
2009,05,26,16,33,18.70
2009,05,26,16,34,18.70
2009,05,26,16,35,18.60
2009,05,26,16,36,18.60
2009,05,26,16,37,18.50
2009,05,26,16,38,18.50
2009,05,26,16,39,18.50
2009,05,26,16,40,18.50
2009,05,26,16,41,18.50
2009,05,26,16,42,18.60
2009,05,26,16,43,18.60
2009,05,26,16,44,18.60
2009,05,26,16,45,18.50
2009,05,26,16,46,18.50
2009,05,26,16,47,18.40
2009,05,26,16,48,18.30
2009,05,26,16,49,18.40
2009,05,26,16,50,18.40
2009,05,26,16,51,18.40
2009,05,26,16,52,18.40
2009,05,26,16,53,18.40
2009,05,26,16,54,18.40
2009,05,26,16,55,18.40
2009,05,26,16,56,18.40
2009,05,26,16,57,18.40
2009,05,26,16,58,18.40
2009,05,26,16,59,18.50
2009,05,26,17,00,18.60
2009,05,26,17,02,18.70
2009,05,26,17,03,18.70
2009,05,26,17,04,18.70
2009,05,26,17,05,18.70
2009,05,26,17,06,18.80
2009,05,26,17,07,18.80
2009,05,26,17,08,18.80
2009,05,26,17,09,18.80
2009,05,26,17,10,18.80
2009,05,26,17,11,18.80
2009,05,26,17,12,18.80
2009,05,26,17,13,18.80
2009,05,26,17,14,18.80
2009,05,26,17,15,18.70
2009,05,26,17,16,18.70
2009,05,26,17,17,18.60
2009,05,26,17,18,18.50
2009,05,26,17,19,18.40
2009,05,26,17,20,18.40
2009,05,26,17,21,18.30
2009,05,26,17,22,18.30
2009,05,26,17,23,18.30
2009,05,26,17,24,18.30
2009,05,26,17,25,18.30
2009,05,26,17,26,18.20
2009,05,26,17,27,18.20
2009,05,26,17,28,18.20
2009,05,26,17,29,18.10
2009,05,26,17,30,18.10
2009,05,26,17,31,18.10
2009,05,26,17,32,18.10
2009,05,26,17,33,18.10
2009,05,26,17,34,18.00
2009,05,26,17,35,18.00
2009,05,26,17,36,18.00
2009,05,26,17,37,18.00
2009,05,26,17,38,18.00
2009,05,26,17,39,17.90
2009,05,26,17,40,17.90
2009,05,26,17,41,17.90
2009,05,26,17,42,17.90
2009,05,26,17,43,17.90
2009,05,26,17,44,17.90
2009,05,26,17,45,17.80
2009,05,26,17,46,17.80
2009,05,26,17,47,17.80
2009,05,26,17,48,17.70
2009,05,26,17,49,17.70
2009,05,26,17,50,17.60
2009,05,26,17,51,17.60
2009,05,26,17,52,17.60
2009,05,26,17,53,17.60
2009,05,26,17,54,17.60
2009,05,26,17,55,17.60
2009,05,26,17,56,17.60
2009,05,26,17,57,17.60
2009,05,26,17,58,17.70
2009,05,26,17,59,17.70
2009,05,26,18,00,17.70
2009,05,26,18,02,17.60
2009,05,26,18,03,17.60
2009,05,26,18,04,17.50
2009,05,26,18,05,17.40